Regional Weather Roundup
Issued by NWS

Home | Current Version | Previous Version | Graphics & Text | Print | Product List | Glossary On
Versions: 1 2 3 4 5 6 7 8 9 10 11 12 13 14 15 16 17 18 19 20 21 22 23 24 25 26 27 28 29 30 31 32 33 34 35 36 37 38 39 40 41 42 43 44 45 46 47 48 49 50
000
ASUS43 KLMK 261802
RWRKY
KENTUCKY REGIONAL WEATHER ROUNDUP
NATIONAL WEATHER SERVICE LOUISVILLE KY
200 PM EDT TUE MAY 26 2015

NOTE "FAIR" INDICATES FEW OR NO CLOUDS BELOW 12,000 FEET
WITH NO SIGNIFICANT WEATHER AND/OR OBSTRUCTIONS TO VISIBILITY.

KYZ001>023-026-027-061>063-070>075-261900-
WESTERN AND SOUTH CENTRAL KENTUCKY

CITY           SKY/WX    TMP DP  RH WIND       PRES   REMARKS
PADUCAH        PTSUNNY   78  62  57 W16G24    30.02R
HENDERSON      CLOUDY    77  64  65 SW22      29.98S
OWENSBORO      CLOUDY    74  71  90 SW14      30.00F
HOPKINSVILLE   CLOUDY    75  68  77 S13G21    30.04F
BOWLING GREEN  CLOUDY    79  67  66 S21G29    30.06F
GLASGOW        NOT AVBL
$$

KYZ024-025-028>034-038-045-046-053-261900-
NORTH CENTRAL KENTUCKY

CITY           SKY/WX    TMP DP  RH WIND       PRES   REMARKS
LOUISVILLE/SDF CLOUDY    84  67  56 S20G32    29.99F
LOUISVILLE/LOU CLOUDY    83  67  58 S22G33    30.00F
FORT KNOX      LGT RAIN  79  68  67 SW20G32   30.01S
$$

KYZ035>037-039>044-047>052-055>060-089>105-261900-
NORTHEAST KENTUCKY

CITY           SKY/WX    TMP DP  RH WIND       PRES   REMARKS
LEXINGTON      CLOUDY    78  67  68 SW9G33    30.08F THUNDER
COVINGTON      PTSUNNY   83  67  58 S14G23    30.03F
FRANKFORT      MOSUNNY   79  67  66 S14G21    30.05F
$$

KYZ054-064>069-076>088-106>120-261900-
SOUTHEAST KENTUCKY

CITY           SKY/WX    TMP DP  RH WIND       PRES   REMARKS
JACKSON        MOSUNNY   82  64  54 S10G18    30.16F
LONDON         MOSUNNY   83  62  49 S13G23    30.15F
SOMERSET       NOT AVBL
MIDDLESBORO    NOT AVBL
MONTICELLO     MOCLDY    83  67  58 S15G24    30.15S
$$



USA.gov is the U.S. government's official web portal to all federal, state and local government web resources and services.